Satellite-Ground Cal/Val Site Overpasses Predictions

Prediction of Satellite NPP Overpassing Cal/Val Site: Antarctic Dome C

Ground Cal/Val Site Location: Latitude: -75.10, Longitude: 123.35; Satellite-Ground Site NADIR distance within 100 km.

Table of predicted overpasses for the next 14.0 days since TLE Epoch: 10/7/2023
Interval Starting Time Ending Time Minimum Distance Time Minimum Distance (km)
1 10/07/2023 15:08:12 10/07/2023 15:08:22 10/07/2023 15:08:17 92.82
2 10/08/2023 14:49:11 10/08/2023 14:49:40 10/08/2023 14:49:26 18.48
3 10/10/2023 07:31:58 10/10/2023 07:32:27 10/10/2023 07:32:12 1.77
4 10/13/2023 14:55:18 10/13/2023 14:55:47 10/13/2023 14:55:33 17.45
5 10/14/2023 14:36:36 10/14/2023 14:36:48 10/14/2023 14:36:42 89.67
6 10/15/2023 07:38:06 10/15/2023 07:38:33 10/15/2023 07:38:20 35.56
7 10/16/2023 07:19:18 10/16/2023 07:19:37 10/16/2023 07:19:28 74.84
8 10/18/2023 15:01:27 10/18/2023 15:01:52 10/18/2023 15:01:40 53.63
9 10/19/2023 14:42:36 10/19/2023 14:43:01 10/19/2023 14:42:49 55.57
